Location: Unspecified
(0.0000°N, 0.0000°E)
Time: 17:57:50
(UTC+00:00)

ITAMSAT 1 - Pass Details

Date: 25 September 2021
Orbit: 783 x 797 km, 98.9° (Epoch: 22 October)

Event Time Altitude Azimuth Distance (km) Brightness Sun altitude
Rises 18:54:14 0° 170° (S) 3,292 10.8 -15.7°
Reaches altitude 10° 18:56:34 10° 172° (S) 2,359 10.1 -16.3°
Maximum altitude 19:01:46 77° 257° (WSW) 813 7.8 -17.6°
Drops below altitude 10° 19:06:56 10° 343° (NNW) 2,341 10.3 -18.9°
Sets 19:09:14 0° 345° (NNW) 3,265 11.0 -19.4°
